OBJECT B, 67647

Orbit data source: Space-Track

You're viewing an Uncataloged Satellite

Recently launched and/or uncataloged satellites may have evolving metadata. Metadata may include but not limited to: Owner, Maufacturer, Bus, Motor, and Mission.

OBJECT B, 67647 is a Chinese satellite in SSO that was launched on Sat, 31 Jan 2026 UTC launched from the Jiuquan Satellite Launch Center, China (JSC). Unknown objects in Earth's orbit typically refer to objects detected orbiting the Earth but have not yet been identified or cataloged. These objects could be anything from previously untracked satellites, spent rocket stages, debris from satellite collisions, or even natural meteoroids temporarily captured by Earth's gravity.

Loading next visibility...
Identifier
67647, 2026-021B
Orbit
SSO
Country
Flag of CNCN / PRC
Related business
None
Manufacturer
Unknown
Mission
Spacecraft
Bus & Motor
Unknown
Mass
Unknown
Launch date (UTC)
2026-01-31 (3 days ago)
Launch vehicle
Unknown
Launch site
Jiuquan Satellite Launch Center, China (JSC)
Object type
Unknown
Shape & HBR
Unknown
Radar Cross Section
RCS unknown

Expand to show TLE details & history
Last TLE update: 14 hours ago

TLE from 14 hours ago
0 OBJECT B
1 67647U 26021B   26033.64285899  .00015495  00000-0  47227-3 0  9995
2 67647  97.6579 108.4049 0154333 132.9070 228.5241 15.23073539   363
Epoch: 2026-02-02T15:25Z
TLE epoch observation values (Epoch: 2026-02-02T15:25:43.016Z)
Latitude
-0.00005°
Longitude
104.14047°
Altitude
570.857 km
Speed
7.536 km/s
True Right ascension
07h 13m 37s
True Declination
0° 00' 00"
Sunlit
Object was in full shadow at epoch
Visualization orbit readout
Latitude
Unknown
Longitude
Unknown
Altitude
Unknown
Speed
Unknown
Apparent Right ascension
Unknown
Apparent Declination
Unknown
Sunlit
N/A
Visualization observer readout
Local Sidereal Time
07:31:57
Azimuth
Unknown
Elevation
Unknown
Doppler factor
Unknown
Orbital elements
Apogee altitude
599.601 km
Perigee altitude
387.495 km
Semi-major axis
6,871.685 km
Eccentricity
0.01543
Inclination
97.6579°
RAAN
108.4049°
Arg. of periapsis
132.907°
True anomaly
227.2159°
Mean anomaly
228.5241°
Eccentric anomaly
227.86833°
Mean motion
3.8102 °/min
Orbital period
94.48 mins
BSTAR
0.00047227
Loading maneuver chart data...
Computing Atmospheric mass density...
Loading historical data...
Loading historical data...
Loading historical data...
Loading historical data...
Loading historical data...
Loading historical data...
Loading historical data...
Other satellites on launch #21 in the year 2026 (2026-01-31 UTC)

Documentation

Showing up to 5 results
|